| time (UTC) | temp F | wind direction | speed MPH | gust MPH | rain 1hr in | rain 24hr in | rain mn in | humidity % | barometer mb |
| 20260504191538 | 72 | 317 | 3.0 | 9.0 | 0.00 | 0.00 | 0.00 | 33 | 1008.2 |
| 20260504191034 | 71 | 133 | 2.0 | 3.0 | 0.00 | 0.00 | 0.00 | 34 | 1008.4 |
| 20260504190530 | 72 | 340 | 3.0 | 6.0 | 0.00 | 0.00 | 0.00 | 32 | 1008.1 |
| 20260504190026 | 72 | 313 | 2.0 | 4.0 | 0.00 | 0.00 | 0.00 | 33 | 1008.3 |
| 20260504185524 | 73 | 312 | 2.0 | 4.0 | 0.00 | 0.00 | 0.00 | 32 | 1008.5 |
| 20260504185020 | 73 | 293 | 2.0 | 3.0 | 0.00 | 0.00 | 0.00 | 34 | 1008.3 |
| 20260504184515 | 72 | 12 | 1.0 | 1.0 | 0.00 | 0.00 | 0.00 | 34 | 1008.4 |
| 20260504184011 | 73 | 281 | 2.0 | 3.0 | 0.00 | 0.00 | 0.00 | 33 | 1008.5 |
| 20260504183509 | 73 | 336 | 3.0 | 4.0 | 0.00 | 0.00 | 0.00 | 31 | 1008.4 |
| 20260504183007 | 73 | 313 | 2.0 | 6.0 | 0.00 | 0.00 | 0.00 | 34 | 1008.4 |
| 20260504182503 | 73 | 139 | 2.0 | 3.0 | 0.00 | 0.00 | 0.00 | 34 | 1008.6 |
| 20260504182000 | 73 | 298 | 2.0 | 4.0 | 0.00 | 0.00 | 0.00 | 31 | 1008.7 |
| 20260504181457 | 72 | 137 | 0.0 | 2.0 | 0.00 | 0.00 | 0.00 | 33 | 1008.6 |
| 20260504180956 | 72 | 306 | 4.0 | 6.0 | 0.00 | 0.00 | 0.00 | 32 | 1008.8 |
| 20260504180454 | 70 | 317 | 3.0 | 6.0 | 0.00 | 0.00 | 0.00 | 34 | 1008.6 |
| 20260504175952 | 71 | 345 | 7.0 | 9.0 | 0.00 | 0.00 | 0.00 | 33 | 1008.5 |
| 20260504175449 | 72 | 294 | 1.0 | 9.0 | 0.00 | 0.00 | 0.00 | 32 | 1008.8 |
| 20260504174947 | 72 | 342 | 2.0 | 4.0 | 0.00 | 0.00 | 0.00 | 34 | 1008.9 |
| 20260504174444 | 71 | 325 | 1.0 | 2.0 | 0.00 | 0.00 | 0.00 | 35 | 1008.8 |
| 20260504173941 | 71 | 336 | 2.0 | 4.0 | 0.00 | 0.00 | 0.00 | 33 | 1009.1 |
| 20260504173437 | 71 | 308 | 2.0 | 4.0 | 0.00 | 0.00 | 0.00 | 36 | 1008.8 |
| 20260504172936 | 70 | 316 | 2.0 | 7.0 | 0.00 | 0.00 | 0.00 | 37 | 1008.8 |
| 20260504172431 | 70 | 134 | 1.0 | 4.0 | 0.00 | 0.00 | 0.00 | 34 | 1009.0 |
| 20260504171928 | 69 | 287 | 5.0 | 6.0 | 0.00 | 0.00 | 0.00 | 34 | 1009.1 |
| 20260504171425 | 69 | 315 | 4.0 | 8.0 | 0.00 | 0.00 | 0.00 | 34 | 1009.1 |
| 20260504170922 | 69 | 276 | 2.0 | 3.0 | 0.00 | 0.00 | 0.00 | 33 | 1009.2 |
| 20260504170418 | 69 | 347 | 4.0 | 7.0 | 0.00 | 0.00 | 0.00 | 35 | 1009.3 |
| 20260504160337 | 66 | 327 | 1.0 | 2.0 | 0.00 | 0.00 | 0.00 | 37 | 1009.9 |
| 20260504150802 | 64 | 354 | 0.0 | 2.0 | 0.00 | 0.00 | 0.00 | 35 | 1010.6 |
| 20260504150258 | 64 | 308 | 2.0 | 4.0 | 0.00 | 0.00 | 0.00 | 34 | 1010.6 |
| 20260504141228 | 61 | 282 | 2.0 | 3.0 | 0.00 | 0.00 | 0.00 | 37 | 1010.7 |
| 20260504140725 | 61 | 344 | 3.0 | 8.0 | 0.00 | 0.00 | 0.00 | 37 | 1010.9 |
| 20260504140220 | 61 | 343 | 2.0 | 6.0 | 0.00 | 0.00 | 0.00 | 38 | 1010.8 |
| 20260504130649 | 57 | 88 | 1.0 | 1.0 | 0.00 | 0.00 | 0.00 | 43 | 1011.4 |
| 20260504130145 | 54 | 40 | 0.0 | 0.0 | 0.00 | 0.00 | 0.00 | 53 | 1011.2 |
| 20260504120110 | 42 | 58 | 0.0 | 0.0 | 0.00 | 0.00 | 0.00 | 78 | 1011.6 |
| 20260504110537 | 35 | 65 | 0.0 | 0.0 | 0.00 | 0.00 | 0.00 | 89 | 1011.7 |
| 20260504100453 | 35 | 164 | 0.0 | 0.0 | 0.00 | 0.00 | 0.00 | 91 | 1011.7 |
| 20260504081846 | 38 | 164 | 0.0 | 0.0 | 0.00 | 0.00 | 0.00 | 85 | 1012.0 |
| 20260504081343 | 38 | 164 | 0.0 | 0.0 | 0.00 | 0.00 | 0.00 | 85 | 1011.9 |
| 20260504080838 | 39 | 164 | 0.0 | 0.0 | 0.00 | 0.00 | 0.00 | 86 | 1012.1 |
| 20260504080336 | 39 | 164 | 0.0 | 0.0 | 0.00 | 0.00 | 0.00 | 87 | 1011.9 |
| 20260504070303 | 39 | 164 | 0.0 | 0.0 | 0.00 | 0.00 | 0.00 | 85 | 1011.8 |
| 20260504060224 | 40 | 164 | 0.0 | 0.0 | 0.00 | 0.00 | 0.00 | 79 | 1011.6 |
| 20260504050651 | 41 | 164 | 0.0 | 0.0 | 0.00 | 0.00 | 0.00 | 80 | 1011.8 |
| 20260504050148 | 41 | 164 | 0.0 | 0.0 | 0.00 | 0.00 | 0.00 | 81 | 1011.9 |
| 20260504045646 | 41 | 164 | 0.0 | 0.0 | 0.00 | 0.00 | 0.00 | 81 | 1011.6 |
| 20260504045146 | 41 | 164 | 0.0 | 0.0 | 0.00 | 0.00 | 0.00 | 80 | 1011.8 |
| 20260504044644 | 41 | 164 | 0.0 | 0.0 | 0.00 | 0.00 | 0.00 | 79 | 1012.0 |
| 20260504044140 | 41 | 164 | 0.0 | 0.0 | 0.00 | 0.00 | 0.00 | 79 | 1011.9 |
| 20260504043637 | 42 | 164 | 0.0 | 0.0 | 0.00 | 0.00 | 0.00 | 78 | 1011.8 |
| 20260504043135 | 42 | 164 | 0.0 | 0.0 | 0.00 | 0.00 | 0.00 | 78 | 1011.7 |
| 20260504042632 | 42 | 164 | 0.0 | 0.0 | 0.00 | 0.00 | 0.00 | 79 | 1011.5 |
| 20260504042128 | 42 | 164 | 0.0 | 0.0 | 0.00 | 0.00 | 0.00 | 79 | 1011.9 |
| 20260504041624 | 43 | 164 | 0.0 | 0.0 | 0.00 | 0.00 | 0.00 | 81 | 1011.6 |
| 20260504041120 | 43 | 164 | 0.0 | 0.0 | 0.00 | 0.00 | 0.00 | 80 | 1011.7 |
| 20260504040618 | 43 | 164 | 0.0 | 0.0 | 0.00 | 0.00 | 0.00 | 77 | 1011.7 |
| 20260504040114 | 43 | 164 | 0.0 | 0.0 | 0.00 | 0.00 | 0.00 | 79 | 1011.6 |
| 20260504035611 | 43 | 164 | 0.0 | 0.0 | 0.00 | 0.00 | 0.00 | 79 | 1011.5 |
| 20260504035108 | 43 | 164 | 0.0 | 0.0 | 0.00 | 0.00 | 0.00 | 77 | 1011.6 |
| 20260504034606 | 44 | 164 | 0.0 | 0.0 | 0.00 | 0.00 | 0.00 | 78 | 1011.6 |
| 20260504034102 | 44 | 164 | 0.0 | 0.0 | 0.00 | 0.00 | 0.00 | 78 | 1011.5 |
| 20260504033600 | 44 | 164 | 0.0 | 0.0 | 0.00 | 0.00 | 0.00 | 76 | 1011.5 |
| 20260504033057 | 44 | 164 | 0.0 | 0.0 | 0.00 | 0.00 | 0.00 | 75 | 1011.6 |
| 20260504032554 | 44 | 164 | 0.0 | 0.0 | 0.00 | 0.00 | 0.00 | 73 | 1011.5 |
| 20260504032051 | 44 | 164 | 0.0 | 0.0 | 0.00 | 0.00 | 0.00 | 75 | 1011.4 |
| 20260504031548 | 45 | 164 | 0.0 | 0.0 | 0.00 | 0.00 | 0.00 | 73 | 1011.4 |
| 20260504031044 | 45 | 164 | 0.0 | 0.0 | 0.00 | 0.00 | 0.00 | 74 | 1011.5 |
| 20260504030542 | 46 | 164 | 0.0 | 0.0 | 0.00 | 0.00 | 0.00 | 73 | 1011.4 |
| 20260504030037 | 46 | 164 | 0.0 | 0.0 | 0.00 | 0.00 | 0.00 | 72 | 1011.3 |
| 20260504025535 | 46 | 164 | 0.0 | 0.0 | 0.00 | 0.00 | 0.00 | 60 | 1011.2 |
| 20260504025031 | 46 | 164 | 0.0 | 0.0 | 0.00 | 0.00 | 0.00 | 58 | 1011.4 |
| 20260504024529 | 46 | 164 | 0.0 | 0.0 | 0.00 | 0.00 | 0.00 | 58 | 1011.4 |
| 20260504024025 | 46 | 164 | 0.0 | 0.0 | 0.00 | 0.00 | 0.00 | 58 | 1011.4 |
| 20260504023522 | 46 | 164 | 0.0 | 0.0 | 0.00 | 0.00 | 0.00 | 55 | 1011.5 |
| 20260504023018 | 47 | 164 | 0.0 | 0.0 | 0.00 | 0.00 | 0.00 | 55 | 1011.4 |
| 20260504022514 | 47 | 164 | 0.0 | 0.0 | 0.00 | 0.00 | 0.00 | 55 | 1011.5 |
| 20260504022011 | 47 | 164 | 0.0 | 0.0 | 0.00 | 0.00 | 0.00 | 55 | 1011.5 |
| 20260504021509 | 47 | 164 | 0.0 | 0.0 | 0.00 | 0.00 | 0.00 | 55 | 1011.6 |
| 20260504021006 | 47 | 164 | 0.0 | 0.0 | 0.00 | 0.00 | 0.00 | 55 | 1011.6 |
| 20260504020502 | 47 | 164 | 0.0 | 0.0 | 0.00 | 0.00 | 0.00 | 54 | 1011.4 |
| 20260504015958 | 48 | 164 | 0.0 | 0.0 | 0.00 | 0.00 | 0.00 | 53 | 1011.5 |
| 20260504015454 | 48 | 164 | 0.0 | 0.0 | 0.00 | 0.00 | 0.00 | 53 | 1011.3 |
| 20260504014950 | 48 | 164 | 0.0 | 0.0 | 0.00 | 0.00 | 0.00 | 52 | 1011.5 |
| 20260504014447 | 48 | 164 | 0.0 | 0.0 | 0.00 | 0.00 | 0.00 | 53 | 1011.4 |
| 20260504013943 | 48 | 164 | 0.0 | 0.0 | 0.00 | 0.00 | 0.00 | 53 | 1011.2 |
| 20260504013442 | 48 | 164 | 0.0 | 0.0 | 0.00 | 0.00 | 0.00 | 53 | 1011.4 |
| 20260504012938 | 49 | 164 | 0.0 | 0.0 | 0.00 | 0.00 | 0.00 | 51 | 1011.2 |
| 20260504012436 | 49 | 164 | 0.0 | 0.0 | 0.00 | 0.00 | 0.00 | 51 | 1011.3 |
| 20260504011933 | 49 | 164 | 0.0 | 0.0 | 0.00 | 0.00 | 0.00 | 51 | 1010.9 |
| 20260504011430 | 49 | 164 | 0.0 | 0.0 | 0.00 | 0.00 | 0.00 | 51 | 1011.2 |
| 20260504010926 | 49 | 164 | 0.0 | 0.0 | 0.00 | 0.00 | 0.00 | 50 | 1011.0 |
| 20260504010422 | 49 | 164 | 0.0 | 0.0 | 0.00 | 0.00 | 0.00 | 50 | 1010.8 |
| 20260504005918 | 49 | 164 | 0.0 | 0.0 | 0.00 | 0.00 | 0.00 | 48 | 1011.1 |
| 20260504005415 | 49 | 164 | 0.0 | 0.0 | 0.00 | 0.00 | 0.00 | 50 | 1010.9 |
| 20260504004913 | 50 | 164 | 0.0 | 0.0 | 0.00 | 0.00 | 0.00 | 50 | 1010.8 |
| 20260504004410 | 50 | 164 | 0.0 | 0.0 | 0.00 | 0.00 | 0.00 | 50 | 1010.8 |
| 20260504003907 | 50 | 164 | 0.0 | 0.0 | 0.00 | 0.00 | 0.00 | 48 | 1010.9 |
| 20260504003403 | 51 | 164 | 0.0 | 0.0 | 0.00 | 0.00 | 0.00 | 47 | 1010.7 |
| 20260504002900 | 51 | 164 | 0.0 | 0.0 | 0.00 | 0.00 | 0.00 | 45 | 1010.9 |
| 20260504002357 | 52 | 164 | 0.0 | 0.0 | 0.00 | 0.00 | 0.00 | 45 | 1010.9 |
| 20260504001855 | 52 | 164 | 0.0 | 0.0 | 0.00 | 0.00 | 0.00 | 46 | 1010.5 |
| 20260504001352 | 52 | 164 | 0.0 | 0.0 | 0.00 | 0.00 | 0.00 | 45 | 1010.6 |
| 20260504000848 | 53 | 164 | 0.0 | 0.0 | 0.00 | 0.00 | 0.00 | 42 | 1010.6 |
| 20260504000346 | 53 | 164 | 0.0 | 0.0 | 0.00 | 0.00 | 0.00 | 41 | 1010.7 |
| 20260503235843 | 53 | 159 | 0.0 | 0.0 | 0.00 | 0.00 | 0.00 | 43 | 1010.7 |
| 20260503235341 | 54 | 159 | 0.0 | 0.0 | 0.00 | 0.00 | 0.00 | 41 | 1010.5 |
| 20260503234838 | 54 | 159 | 0.0 | 0.0 | 0.00 | 0.00 | 0.00 | 41 | 1010.5 |
| 20260503234336 | 55 | 263 | 1.0 | 1.0 | 0.00 | 0.00 | 0.00 | 39 | 1010.4 |
| 20260503233833 | 55 | 263 | 0.0 | 2.0 | 0.00 | 0.00 | 0.00 | 37 | 1010.3 |
| 20260503233329 | 55 | 329 | 0.0 | 2.0 | 0.00 | 0.00 | 0.00 | 36 | 1010.4 |
| 20260503232825 | 55 | 265 | 0.0 | 1.0 | 0.00 | 0.00 | 0.00 | 37 | 1010.3 |
| 20260503232323 | 56 | 310 | 2.0 | 2.0 | 0.00 | 0.00 | 0.00 | 36 | 1010.1 |
| 20260503231821 | 56 | 334 | 1.0 | 3.0 | 0.00 | 0.00 | 0.00 | 36 | 1010.1 |
| 20260503231318 | 56 | 270 | 1.0 | 3.0 | 0.00 | 0.00 | 0.00 | 35 | 1010.4 |
| 20260503230813 | 56 | 304 | 1.0 | 3.0 | 0.00 | 0.00 | 0.00 | 35 | 1010.1 |
| 20260503230311 | 57 | 59 | 0.0 | 6.0 | 0.00 | 0.00 | 0.00 | 36 | 1010.1 |
| 20260503225808 | 57 | 93 | 1.0 | 2.0 | 0.00 | 0.00 | 0.00 | 35 | 1010.3 |
| 20260503225304 | 57 | 325 | 2.0 | 2.0 | 0.00 | 0.00 | 0.00 | 36 | 1010.0 |
| 20260503224800 | 57 | 351 | 3.0 | 4.0 | 0.00 | 0.00 | 0.00 | 34 | 1009.9 |
| 20260503224258 | 57 | 353 | 1.0 | 4.0 | 0.00 | 0.00 | 0.00 | 35 | 1010.3 |
| 20260503223755 | 57 | 352 | 2.0 | 2.0 | 0.00 | 0.00 | 0.00 | 35 | 1009.9 |
| 20260503223253 | 57 | 332 | 3.0 | 7.0 | 0.00 | 0.00 | 0.00 | 34 | 1010.0 |
| 20260503222749 | 58 | 353 | 3.0 | 4.0 | 0.00 | 0.00 | 0.00 | 33 | 1009.9 |
| 20260503222247 | 58 | 334 | 2.0 | 4.0 | 0.00 | 0.00 | 0.00 | 34 | 1010.0 |
| 20260503221745 | 58 | 346 | 3.0 | 7.0 | 0.00 | 0.00 | 0.00 | 33 | 1010.1 |
| 20260503221243 | 57 | 300 | 2.0 | 6.0 | 0.00 | 0.00 | 0.00 | 34 | 1010.1 |
| 20260503220739 | 57 | 349 | 2.0 | 7.0 | 0.00 | 0.00 | 0.00 | 34 | 1009.9 |
| 20260503220236 | 57 | 294 | 1.0 | 3.0 | 0.00 | 0.00 | 0.00 | 34 | 1010.0 |
| 20260503215732 | 57 | 344 | 4.0 | 6.0 | 0.00 | 0.00 | 0.00 | 33 | 1010.1 |
| 20260503215230 | 57 | 250 | 3.0 | 6.0 | 0.00 | 0.00 | 0.00 | 33 | 1010.1 |
| 20260503214728 | 58 | 356 | 3.0 | 4.0 | 0.00 | 0.00 | 0.00 | 33 | 1010.1 |
| 20260503214224 | 58 | 8 | 4.0 | 4.0 | 0.00 | 0.00 | 0.00 | 33 | 1010.0 |
| 20260503213722 | 59 | 311 | 1.0 | 6.0 | 0.00 | 0.00 | 0.00 | 33 | 1009.8 |
| 20260503213219 | 59 | 277 | 4.0 | 4.0 | 0.00 | 0.00 | 0.00 | 32 | 1009.6 |
| 20260503212716 | 59 | 359 | 4.0 | 4.0 | 0.00 | 0.00 | 0.00 | 33 | 1009.8 |
| 20260503212214 | 58 | 342 | 3.0 | 4.0 | 0.00 | 0.00 | 0.00 | 33 | 1009.7 |
| 20260503211711 | 59 | 331 | 3.0 | 4.0 | 0.00 | 0.00 | 0.00 | 33 | 1009.7 |
| 20260503211207 | 59 | 153 | 2.0 | 4.0 | 0.00 | 0.00 | 0.00 | 33 | 1009.8 |
| 20260503210703 | 58 | 2 | 1.0 | 2.0 | 0.00 | 0.00 | 0.00 | 34 | 1009.6 |
| 20260503210200 | 58 | 6 | 2.0 | 13.0 | 0.00 | 0.00 | 0.00 | 32 | 1009.5 |
| 20260503205655 | 59 | 349 | 2.0 | 4.0 | 0.00 | 0.00 | 0.00 | 32 | 1009.5 |
| 20260503205152 | 59 | 301 | 2.0 | 7.0 | 0.00 | 0.00 | 0.00 | 32 | 1009.7 |
| 20260503204649 | 58 | 340 | 6.0 | 7.0 | 0.00 | 0.00 | 0.00 | 31 | 1009.6 |
| 20260503204146 | 58 | 322 | 2.0 | 6.0 | 0.00 | 0.00 | 0.00 | 32 | 1009.6 |
| 20260503203643 | 58 | 287 | 2.0 | 10.0 | 0.00 | 0.00 | 0.00 | 31 | 1009.6 |
| 20260503203141 | 58 | 285 | 2.0 | 6.0 | 0.00 | 0.00 | 0.00 | 32 | 1009.7 |
| 20260503202638 | 58 | 308 | 3.0 | 3.0 | 0.00 | 0.00 | 0.00 | 31 | 1009.7 |
| 20260503202136 | 58 | 334 | 2.0 | 7.0 | 0.00 | 0.00 | 0.00 | 30 | 1010.0 |
| 20260503201634 | 58 | 347 | 2.0 | 3.0 | 0.00 | 0.00 | 0.00 | 32 | 1009.8 |
| 20260503201131 | 59 | 329 | 2.0 | 6.0 | 0.00 | 0.00 | 0.00 | 31 | 1009.7 |
| 20260503200627 | 59 | 285 | 2.0 | 8.0 | 0.00 | 0.00 | 0.00 | 31 | 1009.7 |
| 20260503200124 | 59 | 3 | 6.0 | 8.0 | 0.00 | 0.00 | 0.00 | 29 | 1009.6 |
| 20260503195621 | 58 | 349 | 7.0 | 9.0 | 0.00 | 0.00 | 0.00 | 29 | 1009.8 |
| 20260503195118 | 57 | 333 | 4.0 | 8.0 | 0.00 | 0.00 | 0.00 | 32 | 1009.9 |
| 20260503194615 | 56 | 308 | 3.0 | 6.0 | 0.00 | 0.00 | 0.00 | 32 | 1010.0 |
| 20260503194109 | 57 | 335 | 4.0 | 7.0 | 0.00 | 0.00 | 0.00 | 31 | 1010.0 |
| 20260503193607 | 56 | 313 | 3.0 | 9.0 | 0.00 | 0.00 | 0.00 | 31 | 1010.3 |
| 20260503193102 | 57 | 351 | 6.0 | 7.0 | 0.00 | 0.00 | 0.00 | 29 | 1010.5 |
| 20260503192558 | 58 | 356 | 4.0 | 8.0 | 0.00 | 0.00 | 0.00 | 30 | 1010.3 |
| 20260503192054 | 57 | 312 | 1.0 | 3.0 | 0.00 | 0.00 | 0.00 | 30 | 1010.4 |